Satellite-Ground Cal/Val Region Overpasses Predictions

Prediction of Satellite NPP Overpassing Cal/Val Region: PacNW

Region Location: (Latitude: 10.00, Longitude: 139.50) to (Latitude: 22.70, Longitude: 165.60).

Table of predicted overpasses for the next 14.0 days since TLE Epoch: 1/23/2016
Interval Starting Time Starting Location Ending Time Ending Location
1 01/23/2016 15:44:47 ( 22.66, 149.15) 01/23/2016 15:48:22 ( 10.03, 146.15)
2 01/24/2016 02:53:51 ( 10.06, 156.68) 01/24/2016 02:57:26 ( 22.68, 153.69)
3 01/24/2016 15:25:43 ( 22.69, 153.92) 01/24/2016 15:29:19 ( 10.01, 150.91)
4 01/25/2016 02:34:48 ( 10.02, 161.45) 01/25/2016 02:38:23 ( 22.64, 158.46)
5 01/25/2016 15:06:41 ( 22.67, 158.67) 01/25/2016 15:10:16 ( 10.05, 155.68)
6 01/26/2016 02:16:32 ( 12.75, 165.59) 01/26/2016 02:19:21 ( 22.66, 163.21)
7 01/26/2016 03:57:16 ( 10.05, 140.83) 01/26/2016 03:58:53 ( 15.75, 139.51)
8 01/26/2016 14:47:38 ( 22.65, 163.43) 01/26/2016 14:51:13 ( 10.02, 160.43)
9 01/27/2016 03:38:12 ( 10.02, 145.60) 01/27/2016 03:41:48 ( 22.70, 142.59)
10 01/27/2016 14:31:41 ( 11.76, 165.59) 01/27/2016 14:32:10 ( 10.06, 165.20)
11 01/27/2016 16:10:05 ( 22.67, 142.82) 01/27/2016 16:13:40 ( 10.05, 139.82)
12 01/28/2016 03:19:10 ( 10.04, 150.35) 01/28/2016 03:22:45 ( 22.66, 147.35)
13 01/28/2016 15:51:02 ( 22.65, 147.57) 01/28/2016 15:54:37 ( 10.02, 144.57)
14 01/29/2016 03:00:06 ( 10.01, 155.12) 01/29/2016 03:03:42 ( 22.69, 152.11)
15 01/29/2016 15:31:59 ( 22.68, 152.34) 01/29/2016 15:35:34 ( 10.06, 149.34)
16 01/30/2016 02:41:04 ( 10.03, 159.87) 01/30/2016 02:44:39 ( 22.65, 156.88)
17 01/30/2016 15:12:56 ( 22.65, 157.09) 01/30/2016 15:16:31 ( 10.03, 154.10)
18 01/31/2016 02:22:01 ( 10.06, 164.63) 01/31/2016 02:25:36 ( 22.68, 161.63)
19 01/31/2016 14:53:53 ( 22.69, 161.86) 01/31/2016 14:57:29 ( 10.00, 158.85)
20 02/01/2016 03:44:28 ( 10.03, 144.02) 02/01/2016 03:48:03 ( 22.66, 141.02)
21 02/01/2016 14:36:02 ( 18.50, 165.59) 02/01/2016 14:38:26 ( 10.04, 163.62)
22 02/01/2016 16:16:20 ( 22.65, 141.24) 02/01/2016 16:18:22 ( 15.49, 139.50)
23
